Regional Weather Roundup
Issued by NWS

Home | Current Version | Previous Version | Text Only | Print | Product List | Glossary Off
Versions: 1 2 3 4 5 6 7 8 9 10 11 12 13 14 15 16 17 18 19 20 21 22 23 24 25 26 27 28 29 30 31 32 33 34 35 36 37 38 39 40 41 42 43 44 45 46 47 48 49 50

000
ASUS45 KCYS 271310
RWRWY

WYOMING REGIONAL WEATHER ROUNDUP
NATIONAL WEATHER SERVICE CHEYENNE WY
700 AM MDT FRI MAR 27 2015

NOTE:  "FAIR" INDICATES FEW OR NO CLOUDS BELOW 12,000 FEET
WITH NO SIGNIFICANT WEATHER AND/OR OBSTRUCTIONS TO VISIBILITY.

WYZ001-271400-
YELLOWSTONE NATIONAL PARK

CITY           SKY/WX    TMP DP  RH WIND       PRES   REMARKS
LK YELLOWSTONE   N/A     21  19  92 CALM      30.36F
W YELLOWSTONE  NOT AVBL

$$
WYZ002>013-054>058-071-098>099-271400-
NORTHERN WYOMING

CITY           SKY/WX    TMP DP  RH WIND       PRES   REMARKS
JACKSON        CLEAR     27  27 100 N8        30.35S WCI  18
CODY           FAIR      52  28  40 NW7       30.15S
GREYBULL       FAIR      35  30  82 SE5       30.15R WCI  31
WORLAND        FAIR      34  29  82 S8        30.15R WCI  27
SHERIDAN       FAIR      46  34  62 W10       30.11S
BUFFALO        CLOUDY    43  34  70 SW8       30.13S
GILLETTE       MOCLDY    42  37  82 W13       30.10R
HULETT         CLOUDY    43  37  81 SW13      30.08S
NEWCASTLE      FAIR      34  32  93 NW6       30.11R WCI  29

$$
WYZ014>020-022>026-101>103-271400-
CENTRAL WYOMING

CITY           SKY/WX    TMP DP  RH WIND       PRES   REMARKS
BIG PINEY      FAIR      30  25  81 N3        30.32R
PINEDALE       FAIR      32  28  86 W10       30.32S WCI  24
DUBOIS         FAIR      37  28  70 W18G28    30.29R WCI  27
LANDER         FAIR      38  24  57 S3        30.19R
RIVERTON       FAIR      44  28  53 NW14      30.19S
CASPER         CLOUDY    42  30  62 SW9       30.17S
DOUGLAS        FAIR      44  31  60 W7        30.16R

$$
WYZ021-027>030-104>119-271400-
SOUTHERN WYOMING

CITY           SKY/WX    TMP DP  RH WIND       PRES   REMARKS
EVANSTON       FAIR      34  24  67 S6        30.36S WCI  29
KEMMERER       FAIR      36  30  80 W9G16     30.35S WCI  29
FORT BRIDGER   FAIR      38  28  67 W9        30.37S WCI  31
ROCK SPRINGS   FAIR      38  28  67 W5        30.31S WCI  34
DIXON          FAIR      27  24  90 CALM      30.36R
RAWLINS        FAIR      37  28  70 SW14      30.27F WCI  28
SARATOGA       FAIR      32  27  80 MISG      30.30R
LARAMIE        FAIR      31  25  78 W7        30.22S WCI  24
CHEYENNE       MOCLDY    45  28  51 NW16      30.16R
TORRINGTON     CLOUDY    38  31  76 W8        30.14S WCI  32
PINE BLUFFS    CLOUDY    39  32  75 N3        30.16R

$$



USA.gov is the U.S. government's official web portal to all federal, state and local government web resources and services.